Location: �mondeville
(49.4591°N, 1.3431°W)
Time: 14:56:23
(UTC+00:00)

USA 234 - Pass Details

Date: 22 October 2019
Orbit: 1102 x 1106 km, 123.0° (Epoch: 01 November)

Event Time Altitude Azimuth Distance (km) Brightness Sun altitude
Rises 05:17:18 0° 156° (SSE) 3,908 6.5 -13.6°
Reaches altitude 10° 05:20:02 10° 165° (SSE) 2,953 5.7 -13.1°
Maximum altitude 05:25:53 35° 229° (SW) 1,706 3.9 -12.2°
Enters shadow 05:31:08 13° 290° (WNW) 2,755 4.8 -11.3°
